contact:dominique.lefevre@mio.osupytheas.fr, maurice.libes@osupytheas.fr, didier.mallarino@osupytheas.fr
Project:EMSO http://www.emso-fr.org/EMSO-France
Depth: 2436.0 m
Title:EMSO Ligure Ouest : Data MII capteur MICROCAT
DateTime_Computer,Latitude,Longitude,Temperature,Conductivity,Pressure,DateTime_Instrument
DateTime_Computer,Latitude,Longitude,degC,S m-1,dbar,DateTime_Instrument
2023-08-27T00:02:32Z,42.805,6.029,13.3022,4.60093,2470.707,2023-8-27T02:04:52Z
2023-08-27T00:05:35Z,42.805,6.029,13.3026,4.60092,2470.74,2023-8-27T02:07:55Z
2023-08-27T00:08:38Z,42.805,6.029,13.3027,4.60094,2470.73,2023-8-27T02:10:58Z
2023-08-27T00:11:41Z,42.805,6.029,13.3024,4.60094,2470.717,2023-8-27T02:14:01Z
2023-08-27T00:14:44Z,42.805,6.029,13.3022,4.60090,2470.717,2023-8-27T02:17:04Z
2023-08-27T00:17:47Z,42.805,6.029,13.3027,4.60090,2470.717,2023-8-27T02:20:07Z
2023-08-27T00:20:50Z,42.805,6.029,13.3026,4.60089,2470.717,2023-8-27T02:23:10Z
2023-08-27T00:23:53Z,42.805,6.029,13.3025,4.60094,2470.74,2023-8-27T02:26:13Z
2023-08-27T00:26:56Z,42.805,6.029,13.3023,4.60092,2470.707,2023-8-27T02:29:16Z
2023-08-27T00:29:59Z,42.805,6.029,13.3022,4.60091,2470.707,2023-8-27T02:32:20Z
2023-08-27T00:33:02Z,42.805,6.029,13.3026,4.60087,2470.717,2023-8-27T02:35:23Z
2023-08-27T00:36:05Z,42.805,6.029,13.3026,4.60088,2470.679,2023-8-27T02:38:26Z
2023-08-27T00:39:09Z,42.805,6.029,13.3024,4.60092,2470.717,2023-8-27T02:41:29Z
2023-08-27T00:42:12Z,42.805,6.029,13.3024,4.60092,2470.74,2023-8-27T02:44:32Z
2023-08-27T00:45:15Z,42.805,6.029,13.3020,4.60087,2470.74,2023-8-27T02:47:35Z
2023-08-27T00:48:18Z,42.805,6.029,13.3024,4.60099,2470.73,2023-8-27T02:50:38Z
2023-08-27T00:51:21Z,42.805,6.029,13.3024,4.60088,2470.74,2023-8-27T02:53:41Z
2023-08-27T00:54:24Z,42.805,6.029,13.3020,4.60091,2470.763,2023-8-27T02:56:44Z
2023-08-27T00:57:27Z,42.805,6.029,13.3031,4.60089,2470.763,2023-8-27T02:59:47Z
2023-08-27T01:00:30Z,42.805,6.029,13.3023,4.60092,2470.73,2023-8-27T03:02:50Z
2023-08-27T01:03:33Z,42.805,6.029,13.3024,4.60089,2470.74,2023-8-27T03:05:54Z
2023-08-27T01:06:36Z,42.805,6.029,13.3023,4.60091,2470.74,2023-8-27T03:08:57Z
2023-08-27T01:09:39Z,42.805,6.029,13.3024,4.60090,2470.754,2023-8-27T03:12:00Z
2023-08-27T01:12:42Z,42.805,6.029,13.3021,4.60084,2470.754,2023-8-27T03:15:03Z
2023-08-27T01:15:46Z,42.805,6.029,13.3026,4.60085,2470.777,2023-8-27T03:18:06Z
2023-08-27T01:18:49Z,42.805,6.029,13.3024,4.60094,2470.717,2023-8-27T03:21:09Z
2023-08-27T01:21:52Z,42.805,6.029,13.3025,4.60092,2470.717,2023-8-27T03:24:12Z
2023-08-27T01:24:55Z,42.805,6.029,13.3025,4.60089,2470.717,2023-8-27T03:27:15Z
2023-08-27T01:27:58Z,42.805,6.029,13.3024,4.60099,2470.754,2023-8-27T03:30:18Z
2023-08-27T01:31:01Z,42.805,6.029,13.3024,4.60091,2470.754,2023-8-27T03:33:21Z
2023-08-27T01:34:04Z,42.805,6.029,13.3022,4.60097,2470.763,2023-8-27T03:36:24Z
2023-08-27T01:37:07Z,42.805,6.029,13.3023,4.60091,2470.74,2023-8-27T03:39:27Z
2023-08-27T01:40:10Z,42.805,6.029,13.3023,4.60089,2470.763,2023-8-27T03:42:30Z
2023-08-27T01:43:13Z,42.805,6.029,13.3024,4.60087,2470.777,2023-8-27T03:45:34Z
2023-08-27T01:46:16Z,42.805,6.029,13.3024,4.60092,2470.777,2023-8-27T03:48:37Z
2023-08-27T01:49:19Z,42.805,6.029,13.3023,4.60090,2470.73,2023-8-27T03:51:40Z
2023-08-27T01:52:23Z,42.805,6.029,13.3023,4.60096,2470.717,2023-8-27T03:54:43Z
2023-08-27T01:55:26Z,42.805,6.029,13.3024,4.60092,2470.74,2023-8-27T03:57:46Z
2023-08-27T01:58:29Z,42.805,6.029,13.3021,4.60091,2470.763,2023-8-27T04:00:49Z
2023-08-27T02:01:32Z,42.805,6.029,13.3021,4.60090,2470.754,2023-8-27T04:03:52Z
2023-08-27T02:04:35Z,42.805,6.029,13.3022,4.60092,2470.763,2023-8-27T04:06:55Z
2023-08-27T02:07:38Z,42.805,6.029,13.3027,4.60088,2470.763,2023-8-27T04:09:58Z
2023-08-27T02:10:41Z,42.805,6.029,13.3024,4.60102,2470.717,2023-8-27T04:13:01Z
2023-08-27T02:13:44Z,42.805,6.029,13.3028,4.60094,2470.73,2023-8-27T04:16:04Z
2023-08-27T02:16:47Z,42.805,6.029,13.3021,4.60092,2470.74,2023-8-27T04:19:07Z
2023-08-27T02:19:50Z,42.805,6.029,13.3022,4.60090,2470.763,2023-8-27T04:22:11Z
2023-08-27T02:22:53Z,42.805,6.029,13.3024,4.60091,2470.726,2023-8-27T04:25:14Z
2023-08-27T02:25:56Z,42.805,6.029,13.3025,4.60094,2470.74,2023-8-27T04:28:17Z
2023-08-27T02:29:00Z,42.805,6.029,13.3022,4.60090,2470.777,2023-8-27T04:31:20Z
2023-08-27T02:32:03Z,42.805,6.029,13.3024,4.60088,2470.717,2023-8-27T04:34:23Z
2023-08-27T02:35:06Z,42.805,6.029,13.3019,4.60088,2470.74,2023-8-27T04:37:26Z
2023-08-27T02:38:09Z,42.805,6.029,13.3024,4.60087,2470.717,2023-8-27T04:40:29Z
2023-08-27T02:41:12Z,42.805,6.029,13.3024,4.60089,2470.74,2023-8-27T04:43:32Z
2023-08-27T02:44:15Z,42.805,6.029,13.3020,4.60096,2470.74,2023-8-27T04:46:35Z
2023-08-27T02:47:18Z,42.805,6.029,13.3025,4.60097,2470.73,2023-8-27T04:49:38Z
2023-08-27T02:50:21Z,42.805,6.029,13.3023,4.60089,2470.763,2023-8-27T04:52:41Z
2023-08-27T02:53:24Z,42.805,6.029,13.3023,4.60090,2470.74,2023-8-27T04:55:45Z
2023-08-27T02:56:27Z,42.805,6.029,13.3021,4.60088,2470.74,2023-8-27T04:58:48Z
2023-08-27T02:59:30Z,42.805,6.029,13.3028,4.60092,2470.763,2023-8-27T05:01:51Z
2023-08-27T03:02:33Z,42.805,6.029,13.3022,4.60089,2470.763,2023-8-27T05:04:54Z
2023-08-27T03:05:37Z,42.805,6.029,13.3024,4.60090,2470.74,2023-8-27T05:07:57Z
2023-08-27T03:08:40Z,42.805,6.029,13.3021,4.60092,2470.754,2023-8-27T05:11:00Z
2023-08-27T03:11:43Z,42.805,6.029,13.3024,4.60090,2470.717,2023-8-27T05:14:03Z
2023-08-27T03:14:46Z,42.805,6.029,13.3022,4.60090,2470.74,2023-8-27T05:17:06Z
2023-08-27T03:17:49Z,42.805,6.029,13.3023,4.60090,2470.777,2023-8-27T05:20:09Z
2023-08-27T03:20:52Z,42.805,6.029,13.3024,4.60091,2470.763,2023-8-27T05:23:12Z
2023-08-27T03:23:55Z,42.805,6.029,13.3021,4.60093,2470.693,2023-8-27T05:26:15Z
2023-08-27T03:26:58Z,42.805,6.029,13.3021,4.60091,2470.74,2023-8-27T05:29:18Z
2023-08-27T03:30:01Z,42.805,6.029,13.3024,4.60088,2470.763,2023-8-27T05:32:22Z
2023-08-27T03:33:04Z,42.805,6.029,13.3026,4.60092,2470.763,2023-8-27T05:35:25Z
2023-08-27T03:36:07Z,42.805,6.029,13.3025,4.60091,2470.74,2023-8-27T05:38:28Z
2023-08-27T03:39:10Z,42.805,6.029,13.3026,4.60089,2470.74,2023-8-27T05:41:31Z
2023-08-27T03:42:14Z,42.805,6.029,13.3027,4.60089,2470.754,2023-8-27T05:44:34Z
2023-08-27T03:45:17Z,42.805,6.029,13.3021,4.60089,2470.74,2023-8-27T05:47:37Z
2023-08-27T03:48:20Z,42.805,6.029,13.3022,4.60088,2470.74,2023-8-27T05:50:40Z
2023-08-27T03:51:23Z,42.805,6.029,13.3022,4.60088,2470.777,2023-8-27T05:53:43Z
2023-08-27T03:54:26Z,42.805,6.029,13.3029,4.60090,2470.74,2023-8-27T05:56:46Z
2023-08-27T03:57:29Z,42.805,6.029,13.3025,4.60091,2470.763,2023-8-27T05:59:49Z
2023-08-27T04:00:32Z,42.805,6.029,13.3023,4.60089,2470.73,2023-8-27T06:02:52Z
2023-08-27T04:03:35Z,42.805,6.029,13.3029,4.60091,2470.74,2023-8-27T06:05:55Z
2023-08-27T04:06:38Z,42.805,6.029,13.3026,4.60091,2470.74,2023-8-27T06:08:59Z
2023-08-27T04:09:41Z,42.805,6.029,13.3024,4.60096,2470.74,2023-8-27T06:12:02Z
2023-08-27T04:12:44Z,42.805,6.029,13.3025,4.60091,2470.763,2023-8-27T06:15:05Z
2023-08-27T04:15:47Z,42.805,6.029,13.3023,4.60088,2470.74,2023-8-27T06:18:08Z
2023-08-27T04:18:51Z,42.805,6.029,13.3024,4.60087,2470.73,2023-8-27T06:21:11Z
2023-08-27T04:21:54Z,42.805,6.029,13.3025,4.60092,2470.74,2023-8-27T06:24:14Z
2023-08-27T04:24:57Z,42.805,6.029,13.3024,4.60094,2470.717,2023-8-27T06:27:17Z
2023-08-27T04:28:00Z,42.805,6.029,13.3025,4.60090,2470.763,2023-8-27T06:30:20Z
2023-08-27T04:31:04Z,42.805,6.029,13.3020,4.60087,2470.763,2023-8-27T06:33:25Z
2023-08-27T04:34:07Z,42.805,6.029,13.3024,4.60089,2470.763,2023-8-27T06:36:28Z
2023-08-27T04:37:10Z,42.805,6.029,13.3025,4.60089,2470.73,2023-8-27T06:39:31Z
2023-08-27T04:40:14Z,42.805,6.029,13.3021,4.60092,2470.74,2023-8-27T06:42:34Z
2023-08-27T04:43:17Z,42.805,6.029,13.3023,4.60091,2470.74,2023-8-27T06:45:37Z
2023-08-27T04:46:20Z,42.805,6.029,13.3023,4.60092,2470.754,2023-8-27T06:48:40Z
2023-08-27T04:49:23Z,42.805,6.029,13.3026,4.60091,2470.717,2023-8-27T06:51:43Z
2023-08-27T04:52:26Z,42.805,6.029,13.3024,4.60094,2470.754,2023-8-27T06:54:46Z
2023-08-27T04:55:29Z,42.805,6.029,13.3026,4.60092,2470.74,2023-8-27T06:57:49Z
2023-08-27T04:58:32Z,42.805,6.029,13.3022,4.60092,2470.754,2023-8-27T07:00:52Z
2023-08-27T05:01:35Z,42.805,6.029,13.3021,4.60092,2470.763,2023-8-27T07:03:55Z
2023-08-27T05:04:38Z,42.805,6.029,13.3024,4.60090,2470.754,2023-8-27T07:06:59Z
2023-08-27T05:07:41Z,42.805,6.029,13.3024,4.60089,2470.73,2023-8-27T07:10:02Z
2023-08-27T05:10:44Z,42.805,6.029,13.3026,4.60090,2470.763,2023-8-27T07:13:05Z
2023-08-27T05:13:47Z,42.805,6.029,13.3025,4.60090,2470.763,2023-8-27T07:16:08Z
2023-08-27T05:16:50Z,42.805,6.029,13.3024,4.60092,2470.754,2023-8-27T07:19:11Z
2023-08-27T05:19:54Z,42.805,6.029,13.3022,4.60091,2470.74,2023-8-27T07:22:14Z
2023-08-27T05:22:57Z,42.805,6.029,13.3024,4.60089,2470.717,2023-8-27T07:25:17Z
2023-08-27T05:26:00Z,42.805,6.029,13.3024,4.60090,2470.74,2023-8-27T07:28:20Z
2023-08-27T05:29:03Z,42.805,6.029,13.3024,4.60088,2470.717,2023-8-27T07:31:23Z
2023-08-27T05:32:06Z,42.805,6.029,13.3019,4.60089,2470.717,2023-8-27T07:34:26Z
2023-08-27T05:35:09Z,42.805,6.029,13.3025,4.60087,2470.74,2023-8-27T07:37:29Z
2023-08-27T05:38:12Z,42.805,6.029,13.3027,4.60089,2470.763,2023-8-27T07:40:32Z
2023-08-27T05:41:15Z,42.805,6.029,13.3022,4.60090,2470.717,2023-8-27T07:43:35Z
2023-08-27T05:44:18Z,42.805,6.029,13.3021,4.60090,2470.717,2023-8-27T07:46:39Z
2023-08-27T05:47:21Z,42.805,6.029,13.3024,4.60094,2470.717,2023-8-27T07:49:42Z
2023-08-27T05:50:24Z,42.805,6.029,13.3022,4.60092,2470.73,2023-8-27T07:52:45Z
2023-08-27T05:53:27Z,42.805,6.029,13.3028,4.60095,2470.717,2023-8-27T07:55:48Z
2023-08-27T05:56:31Z,42.805,6.029,13.3028,4.60095,2470.73,2023-8-27T07:58:51Z
2023-08-27T05:59:34Z,42.805,6.029,13.3021,4.60089,2470.693,2023-8-27T08:01:54Z
2023-08-27T06:02:37Z,42.805,6.029,13.3026,4.60091,2470.707,2023-8-27T08:04:57Z
2023-08-27T06:05:40Z,42.805,6.029,13.3026,4.60094,2470.717,2023-8-27T08:08:00Z
2023-08-27T06:08:43Z,42.805,6.029,13.3024,4.60094,2470.73,2023-8-27T08:11:03Z
2023-08-27T06:11:46Z,42.805,6.029,13.3023,4.60091,2470.73,2023-8-27T08:14:06Z
2023-08-27T06:14:49Z,42.805,6.029,13.3020,4.60090,2470.717,2023-8-27T08:17:09Z
2023-08-27T06:17:52Z,42.805,6.029,13.3021,4.60091,2470.717,2023-8-27T08:20:12Z
2023-08-27T06:20:55Z,42.805,6.029,13.3024,4.60094,2470.707,2023-8-27T08:23:16Z
2023-08-27T06:23:58Z,42.805,6.029,13.3019,4.60092,2470.67,2023-8-27T08:26:19Z
2023-08-27T06:27:01Z,42.805,6.029,13.3021,4.60093,2470.693,2023-8-27T08:29:22Z
2023-08-27T06:30:04Z,42.805,6.029,13.3024,4.60096,2470.693,2023-8-27T08:32:25Z
2023-08-27T06:33:08Z,42.805,6.029,13.3021,4.60095,2470.707,2023-8-27T08:35:28Z
2023-08-27T06:36:11Z,42.805,6.029,13.3022,4.60093,2470.717,2023-8-27T08:38:31Z
2023-08-27T06:39:14Z,42.805,6.029,13.3026,4.60094,2470.73,2023-8-27T08:41:34Z
2023-08-27T06:42:17Z,42.805,6.029,13.3026,4.60094,2470.717,2023-8-27T08:44:37Z
2023-08-27T06:45:20Z,42.805,6.029,13.3026,4.60093,2470.693,2023-8-27T08:47:40Z
2023-08-27T06:48:23Z,42.805,6.029,13.3023,4.60095,2470.67,2023-8-27T08:50:43Z
2023-08-27T06:51:26Z,42.805,6.029,13.3021,4.60097,2470.693,2023-8-27T08:53:46Z
2023-08-27T06:54:29Z,42.805,6.029,13.3024,4.60091,2470.707,2023-8-27T08:56:49Z
2023-08-27T06:57:32Z,42.805,6.029,13.3025,4.60090,2470.693,2023-8-27T08:59:53Z
2023-08-27T07:00:35Z,42.805,6.029,13.3024,4.60095,2470.693,2023-8-27T09:02:56Z
2023-08-27T07:03:38Z,42.805,6.029,13.3024,4.60096,2470.684,2023-8-27T09:05:59Z
2023-08-27T07:06:41Z,42.805,6.029,13.3024,4.60092,2470.693,2023-8-27T09:09:02Z
2023-08-27T07:09:45Z,42.805,6.029,13.3024,4.60094,2470.73,2023-8-27T09:12:05Z
2023-08-27T07:12:48Z,42.805,6.029,13.3026,4.60094,2470.717,2023-8-27T09:15:08Z
2023-08-27T07:15:51Z,42.805,6.029,13.3024,4.60092,2470.717,2023-8-27T09:18:11Z
2023-08-27T07:18:54Z,42.805,6.029,13.3023,4.60092,2470.679,2023-8-27T09:21:14Z
2023-08-27T07:21:57Z,42.805,6.029,13.3026,4.60092,2470.73,2023-8-27T09:24:17Z
2023-08-27T07:25:00Z,42.805,6.029,13.3024,4.60089,2470.693,2023-8-27T09:27:20Z
2023-08-27T07:28:03Z,42.805,6.029,13.3023,4.60090,2470.707,2023-8-27T09:30:23Z
2023-08-27T07:31:06Z,42.805,6.029,13.3024,4.60089,2470.67,2023-8-27T09:33:26Z
2023-08-27T07:34:09Z,42.805,6.029,13.3021,4.60091,2470.646,2023-8-27T09:36:29Z
2023-08-27T07:37:12Z,42.805,6.029,13.3020,4.60093,2470.684,2023-8-27T09:39:33Z
2023-08-27T07:40:15Z,42.805,6.029,13.3020,4.60094,2470.693,2023-8-27T09:42:36Z
2023-08-27T07:43:18Z,42.805,6.029,13.3024,4.60097,2470.679,2023-8-27T09:45:39Z
2023-08-27T07:46:21Z,42.805,6.029,13.3026,4.60093,2470.73,2023-8-27T09:48:42Z
2023-08-27T07:49:25Z,42.805,6.029,13.3022,4.60092,2470.67,2023-8-27T09:51:45Z
2023-08-27T07:52:28Z,42.805,6.029,13.3023,4.60089,2470.684,2023-8-27T09:54:48Z
2023-08-27T07:55:31Z,42.805,6.029,13.3024,4.60094,2470.67,2023-8-27T09:57:51Z
2023-08-27T07:58:34Z,42.805,6.029,13.3024,4.60094,2470.707,2023-8-27T10:00:54Z
2023-08-27T08:01:37Z,42.805,6.029,13.3023,4.60092,2470.684,2023-8-27T10:03:57Z
2023-08-27T08:04:40Z,42.805,6.029,13.3026,4.60092,2470.693,2023-8-27T10:07:00Z
2023-08-27T08:07:43Z,42.805,6.029,13.3025,4.60092,2470.67,2023-8-27T10:10:03Z
2023-08-27T08:10:46Z,42.805,6.029,13.3023,4.60094,2470.67,2023-8-27T10:13:06Z
2023-08-27T08:13:49Z,42.805,6.029,13.3024,4.60097,2470.684,2023-8-27T10:16:10Z
2023-08-27T08:16:52Z,42.805,6.029,13.3023,4.60094,2470.67,2023-8-27T10:19:13Z
2023-08-27T08:19:55Z,42.805,6.029,13.3025,4.60094,2470.67,2023-8-27T10:22:16Z
2023-08-27T08:22:59Z,42.805,6.029,13.3020,4.60097,2470.661,2023-8-27T10:25:19Z
2023-08-27T08:26:02Z,42.805,6.029,13.3024,4.60094,2470.67,2023-8-27T10:28:22Z
2023-08-27T08:29:05Z,42.805,6.029,13.3025,4.60094,2470.684,2023-8-27T10:31:25Z
2023-08-27T08:32:07Z,42.805,6.029,13.3024,4.60101,2470.693,2023-8-27T10:34:27Z
2023-08-27T08:35:10Z,42.805,6.029,13.3022,4.60098,2470.684,2023-8-27T10:37:30Z
2023-08-27T08:38:13Z,42.805,6.029,13.3021,4.60092,2470.67,2023-8-27T10:40:33Z
2023-08-27T08:41:16Z,42.805,6.029,13.3021,4.60095,2470.684,2023-8-27T10:43:37Z
2023-08-27T08:44:19Z,42.805,6.029,13.3027,4.60093,2470.646,2023-8-27T10:46:40Z
2023-08-27T08:47:22Z,42.805,6.029,13.3026,4.60090,2470.684,2023-8-27T10:49:43Z
2023-08-27T08:50:26Z,42.805,6.029,13.3024,4.60092,2470.67,2023-8-27T10:52:46Z
2023-08-27T08:53:29Z,42.805,6.029,13.3026,4.60090,2470.646,2023-8-27T10:55:49Z
2023-08-27T08:56:32Z,42.805,6.029,13.3025,4.60091,2470.646,2023-8-27T10:58:52Z
2023-08-27T08:59:35Z,42.805,6.029,13.3024,4.60093,2470.67,2023-8-27T11:01:55Z
2023-08-27T09:02:38Z,42.805,6.029,13.3023,4.60095,2470.684,2023-8-27T11:04:58Z
2023-08-27T09:05:41Z,42.805,6.029,13.3026,4.60094,2470.67,2023-8-27T11:08:01Z
2023-08-27T09:08:44Z,42.805,6.029,13.3026,4.60092,2470.646,2023-8-27T11:11:04Z
2023-08-27T09:11:47Z,42.805,6.029,13.3021,4.60090,2470.637,2023-8-27T11:14:07Z
2023-08-27T09:14:50Z,42.805,6.029,13.3024,4.60088,2470.661,2023-8-27T11:17:11Z
2023-08-27T09:17:53Z,42.805,6.029,13.3024,4.60089,2470.646,2023-8-27T11:20:14Z
2023-08-27T09:20:56Z,42.805,6.029,13.3026,4.60090,2470.646,2023-8-27T11:23:17Z
2023-08-27T09:23:59Z,42.805,6.029,13.3024,4.60091,2470.684,2023-8-27T11:26:20Z
2023-08-27T09:27:03Z,42.805,6.029,13.3024,4.60089,2470.646,2023-8-27T11:29:23Z
2023-08-27T09:30:06Z,42.805,6.029,13.3026,4.60095,2470.624,2023-8-27T11:32:26Z
2023-08-27T09:33:09Z,42.805,6.029,13.3022,4.60089,2470.67,2023-8-27T11:35:29Z
2023-08-27T09:36:12Z,42.805,6.029,13.3022,4.60087,2470.67,2023-8-27T11:38:32Z
2023-08-27T09:39:15Z,42.805,6.029,13.3024,4.60089,2470.637,2023-8-27T11:41:35Z
2023-08-27T09:42:18Z,42.805,6.029,13.3024,4.60087,2470.661,2023-8-27T11:44:38Z
2023-08-27T09:45:21Z,42.805,6.029,13.3026,4.60089,2470.624,2023-8-27T11:47:41Z
2023-08-27T09:48:24Z,42.805,6.029,13.3022,4.60090,2470.646,2023-8-27T11:50:45Z
2023-08-27T09:51:27Z,42.805,6.029,13.3026,4.60089,2470.661,2023-8-27T11:53:48Z
2023-08-27T09:54:30Z,42.805,6.029,13.3022,4.60089,2470.637,2023-8-27T11:56:51Z
2023-08-27T09:57:33Z,42.805,6.029,13.3026,4.60087,2470.624,2023-8-27T11:59:54Z
2023-08-27T10:00:37Z,42.805,6.029,13.3026,4.60089,2470.661,2023-8-27T12:02:57Z
2023-08-27T10:03:40Z,42.805,6.029,13.3024,4.60090,2470.67,2023-8-27T12:06:00Z
2023-08-27T10:06:43Z,42.805,6.029,13.3024,4.60092,2470.637,2023-8-27T12:09:03Z
2023-08-27T10:09:46Z,42.805,6.029,13.3026,4.60094,2470.661,2023-8-27T12:12:06Z
2023-08-27T10:12:49Z,42.805,6.029,13.3022,4.60090,2470.624,2023-8-27T12:15:09Z
2023-08-27T10:15:52Z,42.805,6.029,13.3024,4.60089,2470.646,2023-8-27T12:18:12Z
2023-08-27T10:18:55Z,42.805,6.029,13.3021,4.60088,2470.67,2023-8-27T12:21:15Z
2023-08-27T10:21:58Z,42.805,6.029,13.3022,4.60088,2470.67,2023-8-27T12:24:19Z
2023-08-27T10:25:01Z,42.805,6.029,13.3025,4.60090,2470.684,2023-8-27T12:27:22Z
2023-08-27T10:28:04Z,42.805,6.029,13.3024,4.60088,2470.646,2023-8-27T12:30:25Z
2023-08-27T10:31:06Z,42.805,6.029,13.3026,4.60087,2470.661,2023-8-27T12:33:26Z
2023-08-27T10:34:09Z,42.805,6.029,13.3022,4.60088,2470.661,2023-8-27T12:36:29Z
2023-08-27T10:37:12Z,42.805,6.029,13.3026,4.60088,2470.684,2023-8-27T12:39:32Z
2023-08-27T10:40:15Z,42.805,6.029,13.3026,4.60088,2470.646,2023-8-27T12:42:35Z
2023-08-27T10:43:18Z,42.805,6.029,13.3024,4.60087,2470.646,2023-8-27T12:45:38Z
2023-08-27T10:46:21Z,42.805,6.029,13.3024,4.60089,2470.684,2023-8-27T12:48:41Z
2023-08-27T10:49:24Z,42.805,6.029,13.3026,4.60088,2470.67,2023-8-27T12:51:44Z
2023-08-27T10:52:27Z,42.805,6.029,13.3026,4.60090,2470.646,2023-8-27T12:54:48Z
2023-08-27T10:55:30Z,42.805,6.029,13.3023,4.60088,2470.661,2023-8-27T12:57:51Z
2023-08-27T10:58:33Z,42.805,6.029,13.3025,4.60089,2470.684,2023-8-27T13:00:54Z
2023-08-27T11:01:36Z,42.805,6.029,13.3025,4.60090,2470.661,2023-8-27T13:03:57Z
2023-08-27T11:04:39Z,42.805,6.029,13.3024,4.60089,2470.661,2023-8-27T13:07:00Z
2023-08-27T11:07:43Z,42.805,6.029,13.3021,4.60086,2470.67,2023-8-27T13:10:03Z
2023-08-27T11:10:46Z,42.805,6.029,13.3025,4.60088,2470.646,2023-8-27T13:13:06Z
2023-08-27T11:13:49Z,42.805,6.029,13.3024,4.60089,2470.684,2023-8-27T13:16:09Z
2023-08-27T11:16:52Z,42.805,6.029,13.3024,4.60087,2470.646,2023-8-27T13:19:12Z
2023-08-27T11:19:55Z,42.805,6.029,13.3025,4.60088,2470.656,2023-8-27T13:22:15Z
2023-08-27T11:22:58Z,42.805,6.029,13.3025,4.60088,2470.67,2023-8-27T13:25:18Z
2023-08-27T11:26:01Z,42.805,6.029,13.3019,4.60087,2470.684,2023-8-27T13:28:21Z
2023-08-27T11:29:04Z,42.805,6.029,13.3023,4.60088,2470.684,2023-8-27T13:31:25Z
2023-08-27T11:32:07Z,42.805,6.029,13.3025,4.60087,2470.693,2023-8-27T13:34:28Z
2023-08-27T11:35:10Z,42.805,6.029,13.3024,4.60092,2470.67,2023-8-27T13:37:31Z
2023-08-27T11:38:13Z,42.805,6.029,13.3023,4.60088,2470.693,2023-8-27T13:40:34Z
2023-08-27T11:41:17Z,42.805,6.029,13.3022,4.60089,2470.693,2023-8-27T13:43:37Z
2023-08-27T11:44:20Z,42.805,6.029,13.3024,4.60087,2470.717,2023-8-27T13:46:40Z
2023-08-27T11:47:23Z,42.805,6.029,13.3024,4.60088,2470.693,2023-8-27T13:49:43Z
2023-08-27T11:50:26Z,42.805,6.029,13.3023,4.60087,2470.693,2023-8-27T13:52:46Z
2023-08-27T11:53:29Z,42.805,6.029,13.3020,4.60086,2470.717,2023-8-27T13:55:49Z
2023-08-27T11:56:32Z,42.805,6.029,13.3022,4.60088,2470.693,2023-8-27T13:58:52Z
2023-08-27T11:59:35Z,42.805,6.029,13.3026,4.60087,2470.693,2023-8-27T14:01:55Z
2023-08-27T12:02:38Z,42.805,6.029,13.3024,4.60088,2470.67,2023-8-27T14:04:59Z
2023-08-27T12:05:41Z,42.805,6.029,13.3024,4.60087,2470.693,2023-8-27T14:08:02Z
2023-08-27T12:08:44Z,42.805,6.029,13.3020,4.60087,2470.67,2023-8-27T14:11:05Z
2023-08-27T12:11:47Z,42.805,6.029,13.3023,4.60087,2470.693,2023-8-27T14:14:08Z
2023-08-27T12:14:50Z,42.805,6.029,13.3023,4.60090,2470.717,2023-8-27T14:17:11Z
2023-08-27T12:17:54Z,42.805,6.029,13.3027,4.60087,2470.73,2023-8-27T14:20:14Z
2023-08-27T12:20:57Z,42.805,6.029,13.3023,4.60090,2470.73,2023-8-27T14:23:17Z
2023-08-27T12:24:00Z,42.805,6.029,13.3024,4.60089,2470.73,2023-8-27T14:26:20Z
2023-08-27T12:27:03Z,42.805,6.029,13.3028,4.60087,2470.717,2023-8-27T14:29:23Z
2023-08-27T12:30:06Z,42.805,6.029,13.3021,4.60088,2470.693,2023-8-27T14:32:26Z
2023-08-27T12:33:09Z,42.805,6.029,13.3023,4.60087,2470.693,2023-8-27T14:35:29Z
2023-08-27T12:36:12Z,42.805,6.029,13.3024,4.60088,2470.693,2023-8-27T14:38:32Z
2023-08-27T12:39:15Z,42.805,6.029,13.3022,4.60094,2470.754,2023-8-27T14:41:36Z
2023-08-27T12:42:18Z,42.805,6.029,13.3024,4.60091,2470.717,2023-8-27T14:44:39Z
2023-08-27T12:45:21Z,42.805,6.029,13.3024,4.60088,2470.717,2023-8-27T14:47:42Z
2023-08-27T12:48:24Z,42.805,6.029,13.3025,4.60087,2470.754,2023-8-27T14:50:45Z
2023-08-27T12:51:28Z,42.805,6.029,13.3025,4.60088,2470.74,2023-8-27T14:53:48Z
2023-08-27T12:54:31Z,42.805,6.029,13.3024,4.60089,2470.73,2023-8-27T14:56:51Z
2023-08-27T12:57:34Z,42.805,6.029,13.3022,4.60087,2470.73,2023-8-27T14:59:54Z
2023-08-27T13:00:37Z,42.805,6.029,13.3026,4.60088,2470.693,2023-8-27T15:02:57Z
2023-08-27T13:03:40Z,42.805,6.029,13.3021,4.60087,2470.73,2023-8-27T15:06:00Z
2023-08-27T13:06:43Z,42.805,6.029,13.3027,4.60087,2470.73,2023-8-27T15:09:03Z
2023-08-27T13:09:46Z,42.805,6.029,13.3024,4.60091,2470.717,2023-8-27T15:12:06Z
2023-08-27T13:12:49Z,42.805,6.029,13.3024,4.60087,2470.74,2023-8-27T15:15:09Z
2023-08-27T13:15:52Z,42.805,6.029,13.3027,4.60088,2470.74,2023-8-27T15:18:13Z
2023-08-27T13:18:55Z,42.805,6.029,13.3027,4.60089,2470.74,2023-8-27T15:21:16Z
2023-08-27T13:21:58Z,42.805,6.029,13.3026,4.60091,2470.717,2023-8-27T15:24:19Z
2023-08-27T13:25:01Z,42.805,6.029,13.3025,4.60088,2470.717,2023-8-27T15:27:22Z
2023-08-27T13:28:05Z,42.805,6.029,13.3023,4.60088,2470.754,2023-8-27T15:30:25Z
2023-08-27T13:31:08Z,42.805,6.029,13.3023,4.60087,2470.74,2023-8-27T15:33:28Z
2023-08-27T13:34:11Z,42.805,6.029,13.3024,4.60089,2470.754,2023-8-27T15:36:31Z
2023-08-27T13:37:14Z,42.805,6.029,13.3024,4.60089,2470.763,2023-8-27T15:39:34Z
2023-08-27T13:40:17Z,42.805,6.029,13.3021,4.60087,2470.763,2023-8-27T15:42:37Z
2023-08-27T13:43:20Z,42.805,6.029,13.3026,4.60088,2470.8,2023-8-27T15:45:40Z
2023-08-27T13:46:23Z,42.805,6.029,13.3028,4.60088,2470.754,2023-8-27T15:48:43Z
2023-08-27T13:49:26Z,42.805,6.029,13.3026,4.60088,2470.763,2023-8-27T15:51:46Z
2023-08-27T13:52:29Z,42.805,6.029,13.3023,4.60087,2470.74,2023-8-27T15:54:50Z
2023-08-27T13:55:32Z,42.805,6.029,13.3022,4.60087,2470.763,2023-8-27T15:57:53Z
2023-08-27T13:58:35Z,42.805,6.029,13.3026,4.60087,2470.726,2023-8-27T16:00:56Z
2023-08-27T14:01:38Z,42.805,6.029,13.3027,4.60089,2470.777,2023-8-27T16:03:59Z
2023-08-27T14:04:42Z,42.805,6.029,13.3023,4.60087,2470.777,2023-8-27T16:07:02Z
2023-08-27T14:07:45Z,42.805,6.029,13.3022,4.60086,2470.763,2023-8-27T16:10:05Z
2023-08-27T14:10:48Z,42.805,6.029,13.3022,4.60086,2470.763,2023-8-27T16:13:08Z
2023-08-27T14:13:51Z,42.805,6.029,13.3024,4.60092,2470.777,2023-8-27T16:16:11Z
2023-08-27T14:16:54Z,42.805,6.029,13.3025,4.60090,2470.8,2023-8-27T16:19:14Z
2023-08-27T14:19:57Z,42.805,6.029,13.3024,4.60086,2470.777,2023-8-27T16:22:17Z
2023-08-27T14:23:00Z,42.805,6.029,13.3028,4.60087,2470.787,2023-8-27T16:25:20Z
2023-08-27T14:26:03Z,42.805,6.029,13.3025,4.60087,2470.787,2023-8-27T16:28:23Z
2023-08-27T14:29:06Z,42.805,6.029,13.3030,4.60087,2470.787,2023-8-27T16:31:27Z
2023-08-27T14:32:09Z,42.805,6.029,13.3027,4.60088,2470.81,2023-8-27T16:34:30Z
2023-08-27T14:35:12Z,42.805,6.029,13.3022,4.60086,2470.773,2023-8-27T16:37:33Z
2023-08-27T14:38:15Z,42.805,6.029,13.3031,4.60087,2470.777,2023-8-27T16:40:36Z
2023-08-27T14:41:19Z,42.805,6.029,13.3026,4.60087,2470.787,2023-8-27T16:43:39Z
2023-08-27T14:44:22Z,42.805,6.029,13.3025,4.60087,2470.847,2023-8-27T16:46:42Z
2023-08-27T14:47:25Z,42.805,6.029,13.3025,4.60086,2470.824,2023-8-27T16:49:45Z
2023-08-27T14:50:28Z,42.805,6.029,13.3024,4.60085,2470.763,2023-8-27T16:52:48Z
2023-08-27T14:53:31Z,42.805,6.029,13.3026,4.60087,2470.8,2023-8-27T16:55:51Z
2023-08-27T14:56:34Z,42.805,6.029,13.3025,4.60087,2470.787,2023-8-27T16:58:54Z
2023-08-27T14:59:37Z,42.805,6.029,13.3022,4.60089,2470.787,2023-8-27T17:01:57Z
2023-08-27T15:02:40Z,42.805,6.029,13.3024,4.60087,2470.81,2023-8-27T17:05:01Z
2023-08-27T15:05:43Z,42.805,6.029,13.3026,4.60087,2470.824,2023-8-27T17:08:04Z
2023-08-27T15:08:46Z,42.805,6.029,13.3026,4.60087,2470.81,2023-8-27T17:11:07Z
2023-08-27T15:11:49Z,42.805,6.029,13.3024,4.60087,2470.81,2023-8-27T17:14:10Z
2023-08-27T15:14:53Z,42.805,6.029,13.3026,4.60087,2470.81,2023-8-27T17:17:13Z